Regional Weather Roundup
Issued by NWS

Home | Current Version | Previous Version | Graphics & Text | Print | Product List | Glossary On
Versions: 1 2 3 4 5 6 7 8 9 10 11 12 13 14 15 16 17 18 19 20 21 22 23 24 25 26 27 28 29 30 31 32 33 34 35 36 37 38 39 40 41 42 43 44 45 46 47 48 49 50
000
ASUS44 KFWD 302303
RWRTX
NORTH TEXAS HOURLY WEATHER ROUNDUP
NATIONAL WEATHER SERVICE FORT WORTH TX
600 PM CDT TUE JUN 30 2015

NOTE: "FAIR" INDICATES FEW OR NO CLOUDS BELOW 12,000 FEET WITH NO
SIGNIFICANT WEATHER AND/OR OBSTRUCTIONS TO VISIBILITY.

TXZ118-119-010000-
DALLAS/FORT WORTH METROPLEX

CITY           SKY/WX    TMP DP  RH WIND       PRES   REMARKS
DFW AIRPORT    MOSUNNY   94  68  42 S8        29.92F HX  98
DALLAS LOVE    MOSUNNY   95  70  44 VRB7      29.92F HX 101
FTW MEACHAM    SUNNY     94  68  42 CALM      29.92F HX  98
DAL-EXECUTIVE  SUNNY     91  70  49 MISG      29.93S HX  96
FTW-ALLIANCE   MOSUNNY   93  69  45 SW8       29.92F HX  98
FTW-NAS-JRB    MOSUNNY   94  67  41 CALM      29.92F HX  97
FTW-SPINKS     MOSUNNY   93  72  49 S9        29.95S HX 100
ARLINGTON      PTSUNNY   93  69  45 SE13      29.93S HX  98
GRAND PRAIRIE  SUNNY     90  70  51 SE7       29.94S HX  95
ADDISON        PTSUNNY   93  72  49 S8        29.94F HX 100
MESQUITE       SUNNY     91  70  49 SE10      29.94S HX  97
LANCASTER      SUNNY     91  70  49 S9        29.95S HX  96
$$

TXZ091>094-102>105-117-120-121-131>134-010000-
NORTH CENTRAL TEXAS

CITY           SKY/WX    TMP DP  RH WIND       PRES   REMARKS
SHRMAN/DENISON SUNNY     93  71  48 CALM      29.94F HX  99
GAINESVILLE    SUNNY     91  69  47 CALM      29.95F HX  96
BOWIE          SUNNY     88  66  47 CALM      29.95F HX  90
BRIDGEPORT     SUNNY     92  69  47 SW3       29.95F HX  97
DECATUR        SUNNY     91  64  40 SW6       29.95F HX  92
DENTON         MOSUNNY   93  71  48 S5        29.92F HX 100
MCKINNEY       SUNNY     91  71  51 SE13      29.93S HX  97
GREENVILLE     SUNNY     91  70  49 S8        29.95S HX  97
ROCKWALL       SUNNY     92  71  50 S7        29.93S HX  99
TERRELL        SUNNY     91  71  51 S9        29.95S HX  97
WAXAHACHIE     MOSUNNY   91  69  47 S7        29.96S HX  96
CLEBURNE       SUNNY     91  75  59 S8        29.97R HX 102
GRANBURY       CLOUDY    93  71  47 SE7       29.95S HX 100
$$

TXZ083>090-098>101-113>116-127>130-139>142-154-155-010000-
WESTERN NORTH TEXAS

CITY           SKY/WX    TMP DP  RH WIND       PRES   REMARKS
WICHITA FALLS  MOSUNNY   93  65  39 W5        29.92F HX  95
WF-KICKAPOO    SUNNY     95  60  31 W3        29.94F HX  95
VERNON         SUNNY     99  53  21 SW9       29.94F HX  96
ABILENE        CLOUDY    90  66  45 S6        29.98F HX  92
ABILENE-DYESS  MOSUNNY   91  69  47 W3        29.96F HX  95
BRECKENRIDGE   SUNNY     94  64  35 SE6       29.94F HX  96
GRAHAM         SUNNY     94  64  37 CALM      29.93F HX  95
MINERAL WELLS  SUNNY     92  68  45 SE3       29.92F HX  96
STEPHENVILLE   MOSUNNY   91  68  45 S6        29.99S HX  95
COMANCHE       SUNNY     90  70  51 S13       29.97S HX  95
COLEMAN        MOSUNNY   91  67  44 S5        29.98F HX  94
BRADY          SUNNY     91  57  31 N8        29.99S HX  90
$$

TXZ143>147-156>162-174-175-010000-
CENTRAL TEXAS

CITY           SKY/WX    TMP DP  RH WIND       PRES   REMARKS
WACO           MOSUNNY   88  72  58 SE9       29.95F HX  94
WACO-TSTC      SUNNY     91  73  55 SE6       29.95F HX 100
WACO-MCGREGOR  MOSUNNY   91  70  49 SE8       29.96S HX  97
HILLSBORO      SUNNY     89  70  53 SE10      29.96R HX  94
CORSICANA      SUNNY     90  73  57 S12       29.97S HX  98
MEXIA          SUNNY     88  73  60 E14       29.97S HX  95
HEARNE         PTSUNNY   79  70  74 SE22G35   30.02R
CAMERON        MOSUNNY   87  73  63 S14G23    29.98R HX  93
TEMPLE         SUNNY     91  68  46 SE9       29.96R HX  95
KILLEEN        MOSUNNY   87  71  58 SE17      29.96S HX  93
KILLEEN-SKYLRK MOSUNNY   90  68  48 S14       29.96R HX  93
FORT HOOD      MOSUNNY   89  69  50 S13       29.95S HX  93
GATESVILLE     MOSUNNY   91  66  43 S5        29.98R HX  94
HAMILTON       MOSUNNY   91  66  43 SE7       29.99S HX  93
$$

TXZ095>097-106>112-122>126-135>138-148>153-164>167-010000-
EAST TEXAS

CITY           SKY/WX    TMP DP  RH WIND       PRES   REMARKS
PARIS          PTSUNNY   93  68  43 SW9       29.93S HX  97
SULPHUR SPRNGS SUNNY     92  69  48 SW8       29.97F HX  97
MOUNT PLEASANT SUNNY     92  67  43 S8        29.96S HX  94
GILMER         SUNNY     90  67  46 SE6       29.96F HX  92
MINEOLA        SUNNY     91  64  40 S6        29.97S HX  93
TYLER          SUNNY     91  67  44 S6        29.97F HX  94
LONGVIEW       MOSUNNY  N/A N/A N/A SW9       29.96S
MARSHALL       MOSUNNY   90  74  58 S9        29.97F HX  99
ATHENS         MOSUNNY   88  70  55 SW3       29.96S HX  92
PALESTINE      MOSUNNY   91  73  55 S5        29.98F HX 100
JACKSONVILLE   MOSUNNY   88  70  55 S6        30.01S HX  93
HENDERSON      PTSUNNY   89  70  52 SW6       29.98S HX  94
CENTER         FAIR      83  70  64 S13G20    29.99R
NACOGDOCHES    PTSUNNY   79  72  78 S16       30.01R
LUFKIN         PTSUNNY   75  71  87 SW7       30.03S
$$

SUPPLEMENTAL OBSERVATIONS (CENTRAL)

CITY           SKY/WX    TMP DP  RH WIND       PRES   REMARKS
$$

SUPPLEMENTAL OBSERVATIONS (WEST)

CITY           SKY/WX    TMP DP  RH WIND       PRES   REMARKS
$$

SUPPLEMENTAL OBSERVATIONS (EAST)

CITY           SKY/WX    TMP DP  RH WIND       PRES   REMARKS
$$

SUPPLEMENTAL OBSERVATIONS ARE A COLLECTION OF AUTOMATED INSTRUMENTS
THAT ARE MAINTAINED BY A VARIETY OF FEDERAL AND STATE AGENCIES.
CERTAIN ELEMENTS...SUCH AS HUMIDITY VALUES AND SUSTAINED WIND
SPEEDS...MAY BE APPROXIMATED.



USA.gov is the U.S. government's official web portal to all federal, state and local government web resources and services.